�N����,�����b,�ŏ������i�x�j,���ϕ����i�x�j,�ő啗���i�x�j,�ŏ�����(m/s),���ϕ���(m/s),�ő啗��(m/s),�C��(���j,���x�i���j,�C��(hPa),�~�J��(mm),�~�J����(�b�j,�~�J���x(mm/h),�ő�~�J���x(mm/h),�~�Ђ傤��(hit/���u),�~�Ђ傤����(�b�j,�~�Ђ傤���x(hit/���uh),�ő�~�Ђ傤���x(hit/���uh),�q�[�^���x(���j,�q�[�^�[�d���iV),�d���d���iV),�Q�Ɠd���iV)
2013/08/01,00:00:01,196,199,201,2.1,2.2,2.3,27.4,81.0,1003.5,0.00,0,0.0,////,0.0,0,0.0,////,26.3,0.0,12.3,3.521
2013/08/01,00:10:01,197,197,197,2.1,2.2,2.3,27.4,81.3,1003.4,0.00,0,0.0,////,0.0,0,0.0,////,26.3,0.0,12.3,3.521
2013/08/01,00:20:01,191,192,193,1.3,1.5,1.7,27.4,81.5,1003.4,0.00,0,0.0,////,0.0,0,0.0,////,26.3,0.0,12.3,3.521
2013/08/01,00:30:01,186,201,213,1.7,1.9,2.2,27.3,81.8,1003.3,0.00,0,0.0,////,0.0,0,0.0,////,26.3,0.0,12.3,3.520
2013/08/01,00:40:01,194,199,201,2.0,2.2,2.5,27.3,82.0,1003.3,0.00,0,0.0,////,0.0,0,0.0,////,26.2,0.0,12.3,3.521
2013/08/01,00:50:01,206,208,210,1.2,1.3,1.3,27.3,82.1,1003.2,0.00,0,0.0,////,0.0,0,0.0,////,26.2,0.0,12.3,3.521
2013/08/01,01:00:01,190,197,207,1.1,1.3,1.6,27.2,82.2,1003.2,0.00,0,0.0,////,0.0,0,0.0,////,26.2,0.0,12.3,3.521
2013/08/01,01:10:01,212,225,231,1.2,1.3,1.3,27.1,82.2,1003.2,0.00,0,0.0,////,0.0,0,0.0,////,26.0,0.0,12.3,3.520
2013/08/01,01:20:01,202,211,215,1.2,1.3,1.6,27.0,82.0,1003.1,0.00,0,0.0,////,0.0,0,0.0,////,26.0,0.0,12.3,3.520
2013/08/01,01:30:01,214,215,216,1.4,1.5,1.6,27.1,82.2,1003.0,0.00,0,0.0,////,0.0,0,0.0,////,26.0,0.0,12.3,3.521
2013/08/01,01:40:01,206,209,212,1.2,1.4,1.7,27.1,82.6,1003.0,0.00,0,0.0,////,0.0,0,0.0,////,25.8,0.0,12.3,3.521
2013/08/01,01:50:01,230,236,245,1.3,1.4,1.4,27.0,82.8,1002.8,0.00,0,0.0,////,0.0,0,0.0,////,25.8,0.0,12.3,3.520
2013/08/01,02:00:01,202,211,216,2.0,2.2,2.4,26.9,83.1,1002.7,0.00,0,0.0,////,0.0,0,0.0,////,26.0,0.0,12.3,3.521
2013/08/01,02:10:01,218,221,225,1.6,1.7,1.9,26.8,83.6,1002.7,0.00,0,0.0,////,0.0,0,0.0,////,25.8,0.0,12.3,3.520
2013/08/01,02:20:01,195,197,200,2.1,2.2,2.3,26.9,83.9,1002.7,0.00,0,0.0,////,0.0,0,0.0,////,25.6,0.0,12.2,3.521
2013/08/01,02:30:01,198,207,213,1.5,1.8,2.1,26.9,83.9,1002.7,0.00,0,0.0,////,0.0,0,0.0,////,25.6,0.0,12.4,3.521
2013/08/01,02:40:01,207,211,215,1.8,2.2,2.6,27.0,83.6,1002.7,0.00,0,0.0,////,0.0,0,0.0,////,25.8,0.0,12.3,3.523
2013/08/01,02:50:01,219,224,228,2.1,2.3,2.4,27.1,84.1,1002.7,0.00,0,0.0,////,0.0,0,0.0,////,26.0,0.0,12.3,3.521
2013/08/01,03:00:01,198,202,208,0.9,1.1,1.3,27.1,83.8,1002.7,0.00,0,0.0,////,0.0,0,0.0,////,26.2,0.0,12.3,3.521
2013/08/01,03:10:01,188,196,203,1.0,1.1,1.3,27.0,84.0,1002.6,0.00,0,0.0,////,0.0,0,0.0,////,26.0,0.0,12.3,3.521
2013/08/01,03:20:01,197,198,198,1.9,2.0,2.0,26.8,84.4,1002.5,0.00,0,0.0,////,0.0,0,0.0,////,25.6,0.0,12.3,3.523
2013/08/01,03:30:01,206,207,210,0.5,0.6,0.7,26.7,84.6,1002.5,0.00,0,0.0,////,0.0,0,0.0,////,25.6,0.0,12.3,3.521
2013/08/01,03:40:01,186,188,188,1.1,1.3,1.4,26.5,85.0,1002.5,0.00,0,0.0,////,0.0,0,0.0,////,25.5,0.0,12.3,3.521
2013/08/01,03:50:01,201,202,204,0.8,0.9,1.1,26.5,85.3,1002.5,0.00,0,0.0,////,0.0,0,0.0,////,25.1,0.0,12.3,3.521
2013/08/01,04:00:01,152,155,159,0.9,1.1,1.2,26.5,85.4,1002.4,0.00,0,0.0,////,0.0,0,0.0,////,25.3,0.0,12.3,3.520
2013/08/01,04:10:01,185,187,189,1.0,1.2,1.4,26.5,85.9,1002.5,0.00,0,0.0,////,0.0,0,0.0,////,25.3,0.0,12.3,3.524
2013/08/01,04:20:01,201,202,204,1.2,1.3,1.4,26.4,86.4,1002.5,0.00,0,0.0,////,0.0,0,0.0,////,25.1,0.0,12.3,3.520
2013/08/01,04:30:01,187,191,193,1.0,1.0,1.1,26.6,86.1,1002.4,0.00,0,0.0,////,0.0,0,0.0,////,25.5,0.0,12.3,3.521
2013/08/01,04:40:01,192,193,195,1.0,1.1,1.2,26.5,85.8,1002.4,0.00,0,0.0,////,0.0,0,0.0,////,25.3,0.0,12.3,3.521
2013/08/01,04:50:01,171,172,174,0.9,1.0,1.1,26.4,85.6,1002.4,0.00,0,0.0,////,0.0,0,0.0,////,25.1,0.0,12.3,3.521
2013/08/01,05:00:01,200,204,209,1.1,1.3,1.5,26.4,85.3,1002.5,0.00,0,0.0,////,0.0,0,0.0,////,25.1,0.0,12.3,3.521
2013/08/01,05:10:01,196,199,205,2.1,2.2,2.4,26.6,84.6,1002.5,0.00,0,0.0,////,0.0,0,0.0,////,25.3,0.0,12.3,3.523
2013/08/01,05:20:01,196,200,203,1.1,1.3,1.4,26.6,84.0,1002.4,0.00,0,0.0,////,0.0,0,0.0,////,25.5,0.0,12.3,3.521
2013/08/01,05:30:01,174,184,194,1.3,1.5,1.8,26.6,84.3,1002.4,0.00,0,0.0,////,0.0,0,0.0,////,25.5,0.0,12.3,3.521
2013/08/01,05:40:01,188,199,205,1.8,1.9,1.9,26.7,85.1,1002.4,0.00,0,0.0,////,0.0,0,0.0,////,25.3,0.0,12.3,3.521
2013/08/01,05:50:01,189,195,199,1.5,1.6,1.7,26.6,85.9,1002.5,0.00,0,0.0,////,0.0,0,0.0,////,25.3,0.0,12.3,3.520
2013/08/01,06:00:01,173,177,183,0.7,0.9,1.0,26.5,86.2,1002.6,0.00,0,0.0,////,0.0,0,0.0,////,25.3,0.0,12.3,3.521
2013/08/01,06:10:01,144,153,162,0.7,0.7,0.8,26.6,86.1,1002.7,0.00,0,0.0,////,0.0,0,0.0,////,26.0,0.0,12.3,3.521
2013/08/01,06:20:01,169,170,171,0.9,0.9,1.0,26.8,85.2,1002.8,0.00,0,0.0,////,0.0,0,0.0,////,26.7,0.0,12.3,3.521
2013/08/01,06:30:01,120,128,132,0.4,0.5,0.5,27.2,83.9,1003.0,0.00,0,0.0,////,0.0,0,0.0,////,27.5,0.0,12.3,3.521
2013/08/01,06:40:01,112,116,119,0.6,0.7,0.8,27.6,83.0,1003.0,0.00,0,0.0,////,0.0,0,0.0,////,28.4,0.0,12.3,3.521
2013/08/01,06:50:01,105,126,163,0.1,0.3,0.4,28.0,81.6,1003.2,0.00,0,0.0,////,0.0,0,0.0,////,29.4,0.0,12.3,3.520
2013/08/01,07:00:01,216,221,227,0.2,0.3,0.3,28.3,79.0,1003.3,0.00,0,0.0,////,0.0,0,0.0,////,30.3,0.0,12.3,3.520
2013/08/01,07:10:01,119,157,187,0.2,0.3,0.5,28.6,77.1,1003.4,0.00,0,0.0,////,0.0,0,0.0,////,31.2,0.0,12.3,3.521
2013/08/01,07:20:01,153,155,157,0.4,0.5,0.6,28.9,75.9,1003.3,0.00,0,0.0,////,0.0,0,0.0,////,31.7,0.0,12.3,3.521
2013/08/01,07:30:01,096,100,106,0.5,0.6,0.8,29.4,74.5,1003.4,0.00,0,0.0,////,0.0,0,0.0,////,32.4,0.0,12.3,3.521
2013/08/01,07:40:01,348,348,349,1.5,1.6,1.7,29.2,74.5,1003.3,0.00,0,0.0,////,0.0,0,0.0,////,32.0,0.0,12.3,3.521
2013/08/01,07:50:01,012,017,028,1.1,1.2,1.4,29.1,74.8,1003.3,0.00,0,0.0,////,0.0,0,0.0,////,31.8,0.0,12.3,3.520
2013/08/01,08:00:01,339,343,351,1.2,1.4,1.7,29.6,75.1,1003.5,0.00,0,0.0,////,0.0,0,0.0,////,32.2,0.0,12.3,3.520
2013/08/01,08:10:01,356,007,019,0.9,1.2,1.5,29.6,75.3,1003.7,0.00,0,0.0,////,0.0,0,0.0,////,32.0,0.0,12.3,3.520
2013/08/01,08:20:01,298,302,308,0.8,0.9,1.0,29.2,77.1,1003.8,0.00,0,0.0,////,0.0,0,0.0,////,30.1,0.0,12.3,3.520
2013/08/01,08:30:01,330,333,336,0.6,0.7,0.7,29.6,77.4,1003.7,0.00,0,0.0,////,0.0,0,0.0,////,32.0,0.0,12.3,3.520
2013/08/01,08:40:01,295,298,301,1.0,1.3,1.6,29.8,75.0,1003.8,0.00,0,0.0,////,0.0,0,0.0,////,33.6,0.0,12.2,3.520
2013/08/01,08:50:01,268,275,285,0.7,0.8,1.0,29.7,73.4,1003.9,0.00,0,0.0,////,0.0,0,0.0,////,33.1,0.0,12.3,3.520
2013/08/01,09:00:01,264,279,296,0.6,0.7,0.7,29.7,75.6,1003.9,0.00,0,0.0,////,0.0,0,0.0,////,31.7,0.0,12.3,3.520
2013/08/01,09:10:01,296,307,313,1.1,1.3,1.5,30.5,72.2,1004.0,0.00,0,0.0,////,0.0,0,0.0,////,35.0,0.0,12.3,3.521
2013/08/01,09:20:01,309,326,343,1.0,1.2,1.5,30.2,71.5,1004.1,0.00,0,0.0,////,0.0,0,0.0,////,35.1,0.0,12.3,3.521
2013/08/01,09:30:01,286,291,298,1.0,1.2,1.4,30.0,72.0,1004.3,0.00,0,0.0,////,0.0,0,0.0,////,33.7,0.0,12.2,3.521
2013/08/01,09:40:01,311,313,314,2.0,2.2,2.5,30.3,71.9,1004.3,0.00,0,0.0,////,0.0,0,0.0,////,35.1,0.0,12.3,3.520
2013/08/01,09:50:01,309,318,325,0.6,1.1,1.3,30.4,71.0,1004.4,0.00,0,0.0,////,0.0,0,0.0,////,35.5,0.0,12.3,3.520
2013/08/01,10:00:01,321,330,337,0.9,1.0,1.2,30.5,70.2,1004.4,0.00,0,0.0,////,0.0,0,0.0,////,35.5,0.0,12.3,3.520
2013/08/01,10:10:01,279,304,349,0.3,0.4,0.5,31.2,69.2,1004.4,0.00,0,0.0,////,0.0,0,0.0,////,36.7,0.0,12.3,3.519
2013/08/01,10:20:01,348,352,356,1.9,2.1,2.2,31.0,69.8,1004.5,0.00,0,0.0,////,0.0,0,0.0,////,36.7,0.0,12.3,3.520
2013/08/01,10:30:01,354,001,009,1.7,1.8,2.0,30.4,72.1,1004.5,0.00,0,0.0,////,0.0,0,0.0,////,35.3,0.0,12.3,3.520
2013/08/01,10:40:01,027,035,039,2.0,2.4,2.7,30.6,71.1,1004.4,0.00,0,0.0,////,0.0,0,0.0,////,34.4,0.0,12.3,3.520
2013/08/01,10:50:01,022,024,026,3.1,3.2,3.3,30.8,70.0,1004.5,0.00,0,0.0,////,0.0,0,0.0,////,34.4,0.0,12.3,3.520
2013/08/01,11:00:01,022,027,029,2.5,2.6,2.8,30.5,70.4,1004.4,0.00,0,0.0,////,0.0,0,0.0,////,34.6,0.0,12.3,3.520
2013/08/01,11:10:01,334,341,351,1.8,1.9,2.0,31.1,68.3,1004.4,0.00,0,0.0,////,0.0,0,0.0,////,35.1,0.0,12.3,3.521
2013/08/01,11:20:01,350,353,356,2.3,2.6,2.7,31.0,68.1,1004.4,0.00,0,0.0,////,0.0,0,0.0,////,35.5,0.0,12.3,3.520
2013/08/01,11:30:01,345,358,009,1.9,2.0,2.1,30.3,69.7,1004.4,0.00,0,0.0,////,0.0,0,0.0,////,32.4,0.0,12.3,3.521
2013/08/01,11:40:01,000,005,011,1.6,1.7,1.8,30.8,69.1,1004.4,0.00,0,0.0,////,0.0,0,0.0,////,33.1,0.0,12.3,3.521
2013/08/01,11:50:01,346,002,011,2.1,2.3,2.4,30.9,69.1,1004.4,0.00,0,0.0,////,0.0,0,0.0,////,33.6,0.0,12.3,3.521
2013/08/01,12:00:01,354,000,004,2.6,2.8,3.0,30.9,67.8,1004.3,0.00,0,0.0,////,0.0,0,0.0,////,33.1,0.0,12.3,3.521
2013/08/01,12:10:01,332,342,349,1.9,2.2,2.5,30.8,68.7,1004.3,0.00,0,0.0,////,0.0,0,0.0,////,32.7,0.0,12.3,3.521
2013/08/01,12:20:01,353,000,013,1.6,2.2,2.7,31.0,67.7,1004.2,0.00,0,0.0,////,0.0,0,0.0,////,33.6,0.0,12.3,3.520
2013/08/01,12:30:01,342,345,349,2.3,2.7,3.0,31.5,65.7,1004.2,0.00,0,0.0,////,0.0,0,0.0,////,34.4,0.0,12.3,3.520
2013/08/01,12:40:01,011,012,013,2.5,2.6,2.7,31.8,63.7,1004.2,0.00,0,0.0,////,0.0,0,0.0,////,35.3,0.0,12.3,3.519
2013/08/01,12:50:01,332,333,333,2.6,2.7,2.7,32.0,63.6,1004.1,0.00,0,0.0,////,0.0,0,0.0,////,36.0,0.0,12.3,3.519
2013/08/01,13:00:01,297,311,321,1.7,2.1,2.5,32.3,62.3,1004.2,0.00,0,0.0,////,0.0,0,0.0,////,37.2,0.0,12.3,3.521
2013/08/01,13:10:01,305,307,311,2.3,2.4,2.4,32.0,61.9,1004.2,0.00,0,0.0,////,0.0,0,0.0,////,37.2,0.0,12.3,3.520
2013/08/01,13:20:01,286,303,312,2.1,2.2,2.3,32.3,61.8,1004.2,0.00,0,0.0,////,0.0,0,0.0,////,37.9,0.0,12.3,3.520
2013/08/01,13:30:01,334,341,346,1.6,1.7,1.8,32.1,62.2,1004.2,0.00,0,0.0,////,0.0,0,0.0,////,37.2,0.0,12.3,3.519
2013/08/01,13:40:01,234,236,237,1.8,1.9,2.0,31.8,63.5,1004.1,0.00,0,0.0,////,0.0,0,0.0,////,35.1,0.0,12.3,3.521
2013/08/01,13:50:01,338,342,347,1.6,1.7,2.0,32.3,63.7,1004.0,0.00,0,0.0,////,0.0,0,0.0,////,36.8,0.0,12.3,3.520
2013/08/01,14:00:01,236,238,241,3.6,4.2,4.7,32.4,60.9,1003.9,0.00,0,0.0,////,0.0,0,0.0,////,37.5,0.0,12.3,3.520
2013/08/01,14:10:01,011,015,017,4.9,5.2,5.6,33.1,60.5,1003.8,0.00,0,0.0,////,0.0,0,0.0,////,37.4,0.0,12.3,3.520
2013/08/01,14:20:01,015,023,037,0.8,0.9,1.1,31.4,64.2,1004.0,0.00,0,0.0,////,0.0,0,0.0,////,34.3,0.0,12.3,3.520
2013/08/01,14:30:01,031,038,043,1.2,1.6,1.8,31.5,65.7,1004.0,0.00,0,0.0,////,0.0,0,0.0,////,33.9,0.0,12.3,3.519
2013/08/01,14:40:01,257,323,359,0.3,0.5,1.0,31.4,64.4,1004.2,0.00,0,0.0,////,0.0,0,0.0,////,34.4,0.0,12.3,3.521
2013/08/01,14:50:01,082,085,089,1.5,1.7,1.9,32.2,61.4,1004.2,0.00,0,0.0,////,0.0,0,0.0,////,34.8,0.0,12.3,3.519
2013/08/01,15:00:01,217,224,231,2.6,2.9,3.2,32.6,57.3,1004.1,0.00,0,0.0,////,0.0,0,0.0,////,35.1,0.0,12.3,3.520
2013/08/01,15:10:01,166,182,200,2.0,2.2,2.3,33.4,57.2,1004.2,0.00,0,0.0,////,0.0,0,0.0,////,36.3,0.0,12.3,3.520
2013/08/01,15:20:01,248,271,284,1.2,1.6,1.9,33.3,59.4,1004.3,0.00,0,0.0,////,0.0,0,0.0,////,37.4,0.0,12.3,3.520
2013/08/01,15:30:01,221,226,229,3.2,3.5,3.8,32.6,59.6,1004.3,0.00,0,0.0,////,0.0,0,0.0,////,36.0,0.0,12.3,3.521
2013/08/01,15:40:01,253,258,266,3.0,3.5,3.9,32.7,61.3,1004.2,0.00,0,0.0,////,0.0,0,0.0,////,35.5,0.0,12.3,3.520
2013/08/01,15:50:01,249,252,255,1.9,2.3,2.5,32.7,61.5,1004.2,0.00,0,0.0,////,0.0,0,0.0,////,35.6,0.0,12.3,3.520
2013/08/01,16:00:01,227,255,290,1.8,2.3,2.6,33.2,58.4,1004.2,0.00,0,0.0,////,0.0,0,0.0,////,36.2,0.0,12.3,3.520
2013/08/01,16:10:01,261,275,288,2.5,2.9,3.2,33.3,59.5,1004.1,0.00,0,0.0,////,0.0,0,0.0,////,36.0,0.0,12.3,3.519
2013/08/01,16:20:01,260,266,278,2.0,2.6,3.0,33.7,57.1,1004.1,0.00,0,0.0,////,0.0,0,0.0,////,36.8,0.0,12.3,3.520
2013/08/01,16:30:01,281,291,301,1.3,1.6,1.9,33.1,60.2,1004.2,0.00,0,0.0,////,0.0,0,0.0,////,36.0,0.0,12.3,3.519
2013/08/01,16:40:01,264,269,277,1.9,2.1,2.3,33.1,61.2,1004.1,0.00,0,0.0,////,0.0,0,0.0,////,36.2,0.0,12.3,3.520
2013/08/01,16:50:01,270,275,283,1.3,1.5,1.8,32.4,63.0,1004.1,0.00,0,0.0,////,0.0,0,0.0,////,35.0,0.0,12.3,3.520
2013/08/01,17:00:01,235,243,255,2.3,2.6,2.9,32.7,64.2,1004.1,0.00,0,0.0,////,0.0,0,0.0,////,35.1,0.0,12.3,3.520
2013/08/01,17:10:01,219,238,262,2.3,2.5,2.8,32.9,60.0,1004.0,0.00,0,0.0,////,0.0,0,0.0,////,35.6,0.0,12.3,3.520
2013/08/01,17:20:01,271,281,289,1.6,1.8,2.0,32.8,61.7,1004.0,0.00,0,0.0,////,0.0,0,0.0,////,35.6,0.0,12.3,3.520
2013/08/01,17:30:01,224,234,242,2.0,2.3,2.7,33.0,58.6,1004.0,0.00,0,0.0,////,0.0,0,0.0,////,36.0,0.0,12.3,3.521
2013/08/01,17:40:01,227,231,234,2.2,2.2,2.4,32.6,60.1,1004.1,0.00,0,0.0,////,0.0,0,0.0,////,35.5,0.0,12.2,3.520
2013/08/01,17:50:01,116,135,157,0.7,1.0,1.4,32.8,60.4,1004.2,0.00,0,0.0,////,0.0,0,0.0,////,35.5,0.0,12.3,3.519
2013/08/01,18:00:01,186,188,191,1.0,1.5,1.9,32.0,61.7,1004.1,0.00,0,0.0,////,0.0,0,0.0,////,34.6,0.0,12.3,3.520
2013/08/01,18:10:01,184,187,192,2.3,2.5,2.7,31.4,61.2,1003.9,0.00,0,0.0,////,0.0,0,0.0,////,33.4,0.0,12.3,3.519
2013/08/01,18:20:01,195,203,210,2.9,3.2,3.5,31.3,60.7,1003.8,0.00,0,0.0,////,0.0,0,0.0,////,32.5,0.0,12.3,3.521
2013/08/01,18:30:01,199,203,209,1.5,1.9,2.1,31.0,62.1,1003.9,0.00,0,0.0,////,0.0,0,0.0,////,31.8,0.0,12.3,3.521
2013/08/01,18:40:01,194,201,210,1.3,1.6,1.8,30.8,61.7,1003.9,0.00,0,0.0,////,0.0,0,0.0,////,31.3,0.0,12.3,3.520
2013/08/01,18:50:01,169,184,196,1.1,1.2,1.3,30.6,64.2,1003.9,0.00,0,0.0,////,0.0,0,0.0,////,30.8,0.0,12.3,3.521
2013/08/01,19:00:01,157,170,183,1.5,1.6,1.8,30.1,66.1,1003.8,0.00,0,0.0,////,0.0,0,0.0,////,30.0,0.0,12.3,3.519
2013/08/01,19:10:01,155,171,180,1.3,1.7,1.9,29.7,68.5,1003.9,0.00,0,0.0,////,0.0,0,0.0,////,29.4,0.0,12.3,3.521
2013/08/01,19:20:01,102,107,115,1.4,1.8,2.1,29.5,70.6,1004.0,0.00,0,0.0,////,0.0,0,0.0,////,28.6,0.0,12.3,3.521
2013/08/01,19:30:01,103,108,116,0.7,0.9,1.0,29.3,72.6,1004.1,0.00,0,0.0,////,0.0,0,0.0,////,28.2,0.0,12.3,3.521
2013/08/01,19:40:01,166,172,183,1.4,1.4,1.5,29.1,75.4,1004.1,0.00,0,0.0,////,0.0,0,0.0,////,28.1,0.0,12.3,3.520
2013/08/01,19:50:01,155,160,166,2.0,2.1,2.3,28.8,77.8,1004.2,0.00,0,0.0,////,0.0,0,0.0,////,27.7,0.0,12.3,3.521
2013/08/01,20:00:01,124,130,134,2.7,2.8,2.9,28.5,79.5,1004.3,0.00,0,0.0,////,0.0,0,0.0,////,27.4,0.0,12.3,3.521
2013/08/01,20:10:01,189,198,213,0.3,0.4,0.4,28.4,80.0,1004.4,0.00,0,0.0,////,0.0,0,0.0,////,27.2,0.0,12.3,3.521
2013/08/01,20:20:01,123,132,147,0.9,1.1,1.4,28.2,80.3,1004.5,0.00,0,0.0,////,0.0,0,0.0,////,27.2,0.0,12.3,3.521
2013/08/01,20:30:01,196,201,206,1.9,2.0,2.1,28.2,80.4,1004.5,0.00,0,0.0,////,0.0,0,0.0,////,26.8,0.0,12.3,3.520
2013/08/01,20:40:01,150,158,164,1.3,1.4,1.6,28.3,79.6,1004.6,0.00,0,0.0,////,0.0,0,0.0,////,27.0,0.0,12.3,3.520
2013/08/01,20:50:01,233,270,304,0.1,0.2,0.3,28.2,80.1,1004.5,0.00,0,0.0,////,0.0,0,0.0,////,27.0,0.0,12.3,3.521
2013/08/01,21:00:01,201,201,202,0.7,0.7,0.8,28.0,80.3,1004.5,0.00,0,0.0,////,0.0,0,0.0,////,26.8,0.0,12.3,3.523
2013/08/01,21:10:01,190,198,212,0.4,0.5,0.6,28.0,80.1,1004.5,0.00,0,0.0,////,0.0,0,0.0,////,26.8,0.0,12.3,3.520
2013/08/01,21:20:01,157,172,182,0.5,0.6,0.6,28.1,80.4,1004.6,0.00,0,0.0,////,0.0,0,0.0,////,26.8,0.0,12.3,3.521
2013/08/01,21:30:01,248,253,261,1.3,1.4,1.4,28.3,80.4,1004.7,0.00,0,0.0,////,0.0,0,0.0,////,27.4,0.0,12.3,3.520
2013/08/01,21:40:01,223,227,230,1.4,1.5,1.8,28.4,80.4,1004.9,0.00,0,0.0,////,0.0,0,0.0,////,27.0,0.0,12.3,3.520
2013/08/01,21:50:01,006,012,018,0.8,0.9,1.1,28.3,80.7,1004.9,0.00,0,0.0,////,0.0,0,0.0,////,27.0,0.0,12.3,3.521
2013/08/01,22:00:01,122,123,124,0.1,0.2,0.2,28.2,81.1,1005.1,0.00,0,0.0,////,0.0,0,0.0,////,26.8,0.0,12.3,3.521
2013/08/01,22:10:01,159,162,163,1.4,1.5,1.6,27.9,81.9,1005.2,0.00,0,0.0,////,0.0,0,0.0,////,26.7,0.0,12.3,3.520
2013/08/01,22:20:01,148,157,169,1.5,1.7,1.8,27.8,82.5,1005.4,0.00,0,0.0,////,0.0,0,0.0,////,26.7,0.0,12.3,3.521
2013/08/01,22:30:01,155,161,168,2.1,2.2,2.5,28.0,81.9,1005.5,0.00,0,0.0,////,0.0,0,0.0,////,26.8,0.0,12.3,3.521
2013/08/01,22:40:01,128,135,147,0.8,1.1,1.2,28.0,81.6,1005.4,0.00,0,0.0,////,0.0,0,0.0,////,26.8,0.0,12.3,3.520
2013/08/01,22:50:01,164,167,171,1.3,1.4,1.6,28.0,81.2,1005.4,0.00,0,0.0,////,0.0,0,0.0,////,27.0,0.0,12.3,3.521
2013/08/01,23:00:01,164,169,172,1.1,1.3,1.6,28.1,80.8,1005.6,0.00,0,0.0,////,0.0,0,0.0,////,27.0,0.0,12.3,3.521
2013/08/01,23:10:01,216,221,228,0.6,0.8,1.0,28.0,81.2,1005.7,0.00,0,0.0,////,0.0,0,0.0,////,26.8,0.0,12.3,3.521
2013/08/01,23:20:01,191,194,196,1.1,1.1,1.2,27.8,82.1,1005.7,0.00,0,0.0,////,0.0,0,0.0,////,26.7,0.0,12.3,3.523
2013/08/01,23:30:01,152,158,162,0.7,0.9,1.0,27.7,82.7,1005.7,0.00,0,0.0,////,0.0,0,0.0,////,26.3,0.0,12.2,3.521
2013/08/01,23:40:01,160,161,162,1.2,1.3,1.5,27.6,82.9,1005.6,0.00,0,0.0,////,0.0,0,0.0,////,26.3,0.0,12.4,3.521
2013/08/01,23:50:01,165,174,190,0.7,0.8,0.9,27.6,83.3,1005.5,0.00,0,0.0,////,0.0,0,0.0,////,26.5,0.0,12.3,3.521
2013/08/02,00:00:01,180,182,186,0.8,0.9,1.1,27.4,83.8,1005.5,0.00,0,0.0,////,0.0,0,0.0,////,26.2,0.0,12.3,3.520
2013/08/02,00:10:01,186,187,188,0.7,0.8,0.9,27.4,84.7,1005.4,0.00,0,0.0,////,0.0,0,0.0,////,26.2,0.0,12.3,3.524
2013/08/02,00:20:01,173,179,185,1.1,1.2,1.4,27.3,84.9,1005.1,0.00,0,0.0,////,0.0,0,0.0,////,26.0,0.0,12.3,3.521
2013/08/02,00:30:01,187,189,193,0.7,0.7,0.9,27.2,85.2,1005.0,0.00,0,0.0,////,0.0,0,0.0,////,26.0,0.0,12.3,3.521
2013/08/02,00:40:01,168,176,182,1.1,1.3,1.5,27.4,84.8,1004.9,0.00,0,0.0,////,0.0,0,0.0,////,26.2,0.0,12.3,3.520
2013/08/02,00:50:01,190,195,200,1.2,1.3,1.4,27.4,84.5,1004.8,0.00,0,0.0,////,0.0,0,0.0,////,26.3,0.0,12.3,3.521
2013/08/02,01:00:01,197,198,200,0.8,0.9,1.0,27.4,84.7,1004.8,0.00,0,0.0,////,0.0,0,0.0,////,26.0,0.0,12.3,3.521
2013/08/02,01:10:01,187,188,189,1.1,1.2,1.3,27.4,84.5,1004.8,0.00,0,0.0,////,0.0,0,0.0,////,26.0,0.0,12.3,3.521
2013/08/02,01:20:01,192,193,194,0.8,0.9,1.0,27.3,84.8,1004.7,0.00,0,0.0,////,0.0,0,0.0,////,26.0,0.0,12.3,3.521
2013/08/02,01:30:01,200,202,203,0.4,0.5,0.6,27.3,85.1,1004.6,0.00,0,0.0,////,0.0,0,0.0,////,26.0,0.0,12.3,3.521
2013/08/02,01:40:01,202,225,245,0.2,0.2,0.3,27.3,85.2,1004.6,0.00,0,0.0,////,0.0,0,0.0,////,26.0,0.0,12.3,3.523
2013/08/02,01:50:01,193,196,198,0.6,0.7,0.8,27.3,85.5,1004.7,0.00,0,0.0,////,0.0,0,0.0,////,26.0,0.0,12.3,3.521
2013/08/02,02:00:01,198,206,220,0.9,1.0,1.1,27.1,85.9,1004.5,0.00,0,0.0,////,0.0,0,0.0,////,26.0,0.0,12.3,3.521
2013/08/02,02:10:01,189,192,198,1.8,1.9,2.1,27.1,86.4,1004.5,0.00,0,0.0,////,0.0,0,0.0,////,26.0,0.0,12.3,3.520
2013/08/02,02:20:01,144,152,167,0.8,1.1,1.3,27.0,86.6,1004.4,0.00,0,0.0,////,0.0,0,0.0,////,26.0,0.0,12.3,3.523
2013/08/02,02:30:01,194,201,204,0.7,0.7,0.8,27.0,86.8,1004.5,0.00,0,0.0,////,0.0,0,0.0,////,25.6,0.0,12.2,3.521
2013/08/02,02:40:01,163,164,164,0.4,0.5,0.5,26.9,86.5,1004.5,0.00,0,0.0,////,0.0,0,0.0,////,25.6,0.0,12.3,3.520
2013/08/02,02:50:01,177,199,212,0.3,0.4,0.5,26.9,86.3,1004.6,0.00,0,0.0,////,0.0,0,0.0,////,25.6,0.0,12.3,3.521
2013/08/02,03:00:01,145,145,145,0.8,0.9,1.0,26.8,86.4,1004.5,0.00,0,0.0,////,0.0,0,0.0,////,25.6,0.0,12.3,3.521
2013/08/02,03:10:01,131,132,133,0.7,0.7,0.8,26.8,86.1,1004.6,0.00,0,0.0,////,0.0,0,0.0,////,25.5,0.0,12.3,3.523
2013/08/02,03:20:01,215,216,217,0.2,0.3,0.4,27.0,85.5,1004.6,0.00,0,0.0,////,0.0,0,0.0,////,25.6,0.0,12.3,3.523
2013/08/02,03:30:01,090,095,098,0.6,0.7,0.8,27.0,85.1,1004.7,0.00,0,0.0,////,0.0,0,0.0,////,25.6,0.0,12.3,3.521
2013/08/02,03:40:01,193,196,201,0.6,0.7,0.9,27.2,84.9,1004.8,0.00,0,0.0,////,0.0,0,0.0,////,25.8,0.0,12.3,3.521
2013/08/02,03:50:01,194,201,206,0.2,0.3,0.3,27.3,84.6,1004.8,0.00,0,0.0,////,0.0,0,0.0,////,26.0,0.0,12.3,3.521
2013/08/02,04:00:01,221,221,222,0.4,0.5,0.6,27.4,84.4,1004.8,0.00,0,0.0,////,0.0,0,0.0,////,26.0,0.0,12.3,3.520
2013/08/02,04:10:01,111,142,180,0.2,0.3,0.3,27.3,84.0,1004.8,0.00,0,0.0,////,0.0,0,0.0,////,26.2,0.0,12.3,3.523
2013/08/02,04:20:01,216,224,233,0.2,0.3,0.4,27.3,84.6,1004.8,0.00,0,0.0,////,0.0,0,0.0,////,26.2,0.0,12.3,3.523
2013/08/02,04:30:01,098,105,110,0.6,0.6,0.7,27.5,84.8,1004.9,0.00,0,0.0,////,0.0,0,0.0,////,26.0,0.0,12.3,3.521
2013/08/02,04:40:01,146,149,155,0.9,1.2,1.7,27.1,85.1,1005.0,0.00,0,0.0,////,0.0,0,0.0,////,26.0,0.0,12.3,3.523
2013/08/02,04:50:01,175,177,179,1.8,1.9,2.0,27.1,85.0,1005.0,0.00,0,0.0,////,0.0,0,0.0,////,26.2,0.0,12.3,3.521
2013/08/02,05:00:01,162,166,174,0.4,0.5,0.7,27.3,84.8,1005.1,0.00,0,0.0,////,0.0,0,0.0,////,26.2,0.0,12.3,3.521
2013/08/02,05:10:01,157,158,159,0.9,1.0,1.0,27.2,85.0,1005.2,0.00,0,0.0,////,0.0,0,0.0,////,26.0,0.0,12.4,3.521
2013/08/02,05:20:01,224,227,228,0.4,0.5,0.6,27.1,85.3,1005.2,0.00,0,0.0,////,0.0,0,0.0,////,26.0,0.0,12.3,3.520
2013/08/02,05:30:01,195,196,196,0.7,0.8,0.9,27.3,85.3,1005.4,0.00,0,0.0,////,0.0,0,0.0,////,26.0,0.0,12.3,3.521
2013/08/02,05:40:01,189,191,192,1.0,1.1,1.1,27.1,85.6,1005.5,0.00,0,0.0,////,0.0,0,0.0,////,26.2,0.0,12.3,3.521
2013/08/02,05:50:01,186,187,189,0.8,0.9,0.9,27.1,85.9,1005.5,0.00,0,0.0,////,0.0,0,0.0,////,25.8,0.0,12.3,3.523
2013/08/02,06:00:01,155,158,160,0.9,0.9,1.0,27.1,86.2,1005.5,0.00,0,0.0,////,0.0,0,0.0,////,26.0,0.0,12.3,3.520
2013/08/02,06:10:01,175,176,178,1.1,1.2,1.3,27.1,86.1,1005.6,0.00,0,0.0,////,0.0,0,0.0,////,26.2,0.0,12.3,3.520
2013/08/02,06:20:01,164,169,173,0.9,1.2,1.4,27.0,86.3,1005.8,0.00,0,0.0,////,0.0,0,0.0,////,26.0,0.0,12.3,3.521
2013/08/02,06:30:01,208,210,212,0.7,0.9,1.1,27.1,86.1,1006.0,0.00,0,0.0,////,0.0,0,0.0,////,26.2,0.0,12.3,3.521
2013/08/02,06:40:01,205,210,214,0.9,1.0,1.1,27.3,85.5,1006.1,0.00,0,0.0,////,0.0,0,0.0,////,27.2,0.0,12.3,3.520
2013/08/02,06:50:01,146,162,173,0.4,0.5,0.6,27.7,83.5,1006.4,0.00,0,0.0,////,0.0,0,0.0,////,28.7,0.0,12.2,3.521
2013/08/02,07:00:01,211,217,223,0.0,0.1,0.2,28.3,82.0,1006.6,0.00,0,0.0,////,0.0,0,0.0,////,29.8,0.0,12.3,3.521
2013/08/02,07:10:01,194,196,198,1.5,1.7,1.8,28.6,79.3,1006.7,0.00,0,0.0,////,0.0,0,0.0,////,30.8,0.0,12.2,3.521
2013/08/02,07:20:01,174,248,287,0.0,0.2,0.3,28.9,77.7,1006.7,0.00,0,0.0,////,0.0,0,0.0,////,31.3,0.0,12.3,3.520
2013/08/02,07:30:01,158,163,172,1.0,1.1,1.2,29.3,75.9,1006.6,0.00,0,0.0,////,0.0,0,0.0,////,31.8,0.0,12.3,3.520
2013/08/02,07:40:01,149,153,155,1.2,1.3,1.4,29.6,74.8,1006.6,0.00,0,0.0,////,0.0,0,0.0,////,32.4,0.0,12.3,3.520
2013/08/02,07:50:01,171,175,180,1.6,1.6,1.7,29.8,73.4,1006.7,0.00,0,0.0,////,0.0,0,0.0,////,32.9,0.0,12.3,3.521
2013/08/02,08:00:01,164,169,172,1.2,1.3,1.4,30.1,72.7,1006.7,0.00,0,0.0,////,0.0,0,0.0,////,32.9,0.0,12.3,3.520
2013/08/02,08:10:01,206,208,211,1.0,1.2,1.3,29.6,73.6,1006.7,0.00,0,0.0,////,0.0,0,0.0,////,31.0,0.0,12.3,3.520
2013/08/02,08:20:01,167,169,174,1.3,1.4,1.5,29.6,73.7,1006.7,0.00,0,0.0,////,0.0,0,0.0,////,30.6,0.0,12.3,3.524
2013/08/02,08:30:01,205,214,220,0.2,0.3,0.4,30.0,72.2,1006.7,0.00,0,0.0,////,0.0,0,0.0,////,31.8,0.0,12.3,3.520
2013/08/02,08:40:01,163,166,169,1.8,1.9,2.1,31.0,69.1,1006.7,0.00,0,0.0,////,0.0,0,0.0,////,34.4,0.0,12.3,3.521
2013/08/02,08:50:01,279,282,285,2.0,2.1,2.2,30.7,69.7,1006.6,0.00,0,0.0,////,0.0,0,0.0,////,34.8,0.0,12.3,3.520
2013/08/02,09:00:01,253,257,262,2.0,2.1,2.2,30.8,69.3,1006.6,0.00,0,0.0,////,0.0,0,0.0,////,34.1,0.0,12.3,3.520
2013/08/02,09:10:01,249,253,257,1.6,1.7,1.9,30.3,71.4,1006.8,0.00,0,0.0,////,0.0,0,0.0,////,32.2,0.0,12.3,3.520
2013/08/02,09:20:01,288,301,327,0.4,0.6,0.8,30.4,71.9,1006.8,0.00,0,0.0,////,0.0,0,0.0,////,32.2,0.0,12.3,3.521
2013/08/02,09:30:01,326,329,333,1.4,1.8,2.3,30.2,72.8,1006.8,0.00,0,0.0,////,0.0,0,0.0,////,31.7,0.0,12.3,3.521
2013/08/02,09:40:01,296,311,322,1.4,1.9,2.5,30.5,73.0,1007.0,0.00,0,0.0,////,0.0,0,0.0,////,33.6,0.0,12.3,3.520
2013/08/02,09:50:01,299,305,311,2.1,2.7,3.0,30.7,71.1,1007.2,0.00,0,0.0,////,0.0,0,0.0,////,35.0,0.0,12.3,3.520
2013/08/02,10:00:01,306,308,312,2.7,3.0,3.2,31.0,69.8,1007.2,0.00,0,0.0,////,0.0,0,0.0,////,35.6,0.0,12.3,3.520
2013/08/02,10:10:01,328,338,343,0.9,1.2,1.4,30.8,70.4,1007.3,0.00,0,0.0,////,0.0,0,0.0,////,35.3,0.0,12.3,3.520
2013/08/02,10:20:01,357,002,011,1.8,2.2,2.5,31.5,69.0,1007.4,0.00,0,0.0,////,0.0,0,0.0,////,35.6,0.0,12.3,3.519
2013/08/02,10:30:01,328,336,345,1.1,1.2,1.3,32.2,67.9,1007.3,0.00,0,0.0,////,0.0,0,0.0,////,36.8,0.0,12.3,3.519
2013/08/02,10:40:01,353,356,358,2.8,2.9,3.0,31.1,68.9,1007.3,0.00,0,0.0,////,0.0,0,0.0,////,35.5,0.0,12.3,3.520